Location: Glenbow
(51.1592°N, 114.3828°W)
Time: 21:28:33
(UTC+00:00)

Envisat - Pass Details

Date: 06 December 2021
Orbit: 764 x 766 km, 98.2° (Epoch: 26 January)

Event Time Altitude Azimuth Distance (km) Brightness Sun altitude
Rises 00:33:35 0° 195° (SSW) 3,221 6.9 -9.2°
Reaches altitude 10° 00:36:09 10° 206° (SSW) 2,300 6.3 -9.6°
Maximum altitude 00:40:32 29° 266° (W) 1,379 5.2 -10.2°
Drops below altitude 10° 00:44:58 10° 327° (NNW) 2,316 5.6 -10.9°
Sets 00:47:35 0° 338° (NNW) 3,247 6.3 -11.3°
